Regional Weather Roundup
Issued by NWS

Home | Current Version | Previous Version | Graphics & Text | Print | Product List | Glossary On
Versions: 1 2 3 4 5 6 7 8 9 10 11 12 13 14 15 16 17 18 19 20 21 22 23 24 25 26 27 28 29 30 31 32 33 34 35 36 37 38 39 40 41 42 43 44 45 46 47 48 49 50
000
ASUS43 KLOT 150910
RWRIL

ILLINOIS REGIONAL WEATHER ROUNDUP
NATIONAL WEATHER SERVICE CHICAGO/ROMEOVILLE IL
400 AM CDT MON SEP 15 2014

NOTE: "FAIR" INDICATES FEW OR NO CLOUDS BELOW 12,000 FEET WITH NO
SIGNIFICANT WEATHER AND/OR OBSTRUCTIONS TO VISIBILITY.

* THESE STATIONS ARE NOT UNDER NWS QUALITY CONTROL. THEY ALSO MAY NOT
  REPORT WEATHER SUCH AS PRECIPITATION OR FOG.

ILZ001-002-007-009-015-016-024-151000-
NORTHWEST ILLINOIS

CITY           SKY/WX    TMP DP  RH WIND       PRES   REMARKS
MOLINE         CLOUDY    55  49  80 SE6       30.13F
STERLING*      CLOUDY    52  45  76 CALM      30.15S
SAVANNA*       CLOUDY    50  48  92 CALM      30.14R
$$

ILZ003-004-008-010-011-017-018-151000-
NORTH CENTRAL ILLINOIS

CITY           SKY/WX    TMP DP  RH WIND       PRES   REMARKS
ROCKFORD       CLOUDY    50  46  86 S3        30.16F
FREEPORT*      CLOUDY    50  48  93 CALM      30.15F
ROCHELLE*      CLOUDY    48  46  90 CALM      30.15F
DE KALB*       CLOUDY    47  44  88 S3        30.16S
PERU*          CLOUDY    53  48  83 CALM      30.16F
$$

ILZ005-006-012>014-019>023-151000-
NORTHEAST ILLINOIS

CITY           SKY/WX    TMP DP  RH WIND       PRES   REMARKS
CHICAGO-OHARE  MOCLDY    52  46  80 CALM      30.15F
CHICAGO-MIDWAY MOCLDY    55  47  74 S3        30.15F
AURORA         CLOUDY    50  46  86 CALM      30.16S
LANSING*       MOCLDY    49  46  92 SE3       30.17F
JOLIET*        MOCLDY    50  46  87 CALM      30.17S
WAUKEGAN       CLOUDY    51  46  83 SW3       30.14F
DUPAGE AIRPORT CLOUDY    50  47  89 CALM      30.15S
KANKAKEE*      MOCLDY    47  46  96 CALM      30.17F
WHEELING       PTCLDY    53  47  79 CALM      30.17S
MORRIS*        CLOUDY    50  50 100 CALM      30.15F
ROMEOVILLE*    MOCLDY    49  48  95 S5        30.16S
NORTHERLY ISL    N/A     57  45  64 S5          N/A
$$

LMZ740>746-151000-
SOUTHERN LAKE MICHIGAN

STATION/POSITION SKY/WX   TEMP    WIND        PRES    VSBY  WAVE
                          AIR SEA DIR/SP/G                  HT/PER
                          (F)     (DEG/KT/KT) (MB)    (MI)  (FT/S)
SOUTHERN BUOY              63 64  230/ 10/ 12 1020.9F         1/ 3
WAUKEGAN HARBOR            56     260/  6/  7   N/A
HARRISON CRIB              58     180/  9/  9   N/A
BURNHAM HARBOR             56     170/  2/  6   N/A
CALUMET HARBOR             54     180/  4/  5 1019.9F
MICHIGAN CITY              56     150/  7/ 10   N/A
MICHIGAN CITY 6N           59 63  190/  8/ 10   N/A           1/ 2
ST. JOSEPH                 60 67  170/ 10/ 12   N/A           1/ 2
$$

ILZ025>027-034>036-040-047-049-050-058-095>099-151000-
WEST-CENTRAL ILLINOIS

CITY           SKY/WX    TMP DP  RH WIND       PRES   REMARKS
QUINCY         CLOUDY    59  49  69 SE3       30.12S
GALESBURG*     CLOUDY    55  50  85 SE5       30.15S
MACOMB*        CLOUDY    55  52  87 S5        30.17S
JACKSONVILLE*  CLOUDY    58  52  80 SE5       30.15F
PITTSFIELD*    CLOUDY    58  51  78 SE5       30.14F
$$

ILZ028>032-037-038-041>044-048-051>054-059>061-151000-
CENTRAL ILLINOIS

CITY           SKY/WX    TMP DP  RH WIND       PRES   REMARKS
PONTIAC        CLOUDY    52  52 100 CALM      30.17R
DECATUR        CLOUDY    52  49  89 CALM      30.18S
PEORIA         LGT RAIN  56  49  77 S5        30.17R
LACON*         CLOUDY    53  48  83 CALM      30.15F
LINCOLN*       CLOUDY    53  50  87 CALM      30.16S
SPRINGFIELD    CLOUDY    58  51  78 CALM      30.17F
TAYLORVILLE    CLOUDY    54  48  82 SE5       30.17S
$$

ILZ033-039-045-046-055>057-062-063-151000-
EAST-CENTRAL ILLINOIS

CITY           SKY/WX    TMP DP  RH WIND       PRES   REMARKS
CHAMPAIGN      CLOUDY    50  47  89 SE5       30.16F
DANVILLE*      PTCLDY    46  45  98 SE5       30.15F
RANTOUL*       MOCLDY    51  47  84 E5        30.17F
MATTOON        MOCLDY    49  46  90 S6        30.17F
PARIS*         PTCLDY    47  46  99 CALM      30.20S
$$

ILZ079-100>102-151000-
SOUTHWEST ILLINOIS

CITY           SKY/WX    TMP DP  RH WIND       PRES   REMARKS
ALTON          CLOUDY    55  52  90 E3        30.17S
CAHOKIA*       CLOUDY    57  53  86 CALM      30.16F
SPARTA*        PTCLDY    51  49  93 CALM      30.18S
$$

ILZ064>066-069>071-074>076-080>082-084>086-088>090-092>094-151000-
SOUTH-CENTRAL ILLINOIS

CITY           SKY/WX    TMP DP  RH WIND       PRES   REMARKS
CARBONDALE     CLEAR     51  49  92 CALM      30.17S
CAIRO*         PTCLDY    55  53  93 CALM      30.17F
EFFINGHAM*     PTCLDY    47  45  92 CALM      30.18S FOG
MARION         PTCLDY    55  52  88 SE3       30.16F
MT. VERNON     PTCLDY    50  46  87 CALM      30.18S
CENTRALIA*     PTCLDY    48  46  90 CALM      30.18R
SALEM*         CLEAR     52  50  92 CALM      30.18R
METROPOLIS*    PTCLDY    52  52 100 CALM      30.16F
$$

ILZ067-068-072-073-078-083-087-091-151000-
SOUTHEAST ILLINOIS

CITY           SKY/WX    TMP DP  RH WIND       PRES   REMARKS
LAWRENCEVILLE  PTCLDY    47  46  97 E3        30.20S FOG
FLORA*         CLEAR     46  46  99 CALM      30.19S
FAIRFIELD*     PTCLDY   N/A N/A N/A CALM      30.17F
HARRISBURG*    PTCLDY    50  50 100 CALM      30.19S
ROBINSON*      FOG       46  46  99 CALM      30.21S VSB 1
CARMI*         PTCLDY    50  50 100 CALM      30.18F
$$

ABBREVIATIONS USED IN REMARKS
   TC - TEMPERATURE IN CELSIUS
  WCI - WIND CHILL INDEX
   HX - HEAT INDEX
  VSB - VISIBILITY
$$



USA.gov is the U.S. government's official web portal to all federal, state and local government web resources and services.